Location: Godiavel Galaoual
(15.2485°N, 12.6604°W)
Time: 18:57:39
(UTC+00:00)

DELFI C3 - Visible Passes

Search period start: 23 July 2021 00:00
Search period end: 02 August 2021 00:00
Orbit: 530 x 547 km, 97.4° (Epoch: 23 July)

Date Brightness Start Highest point End Pass type
(mag) Time Alt. Az. Time Alt. Az. Time Alt. Az.
23 Jul ? 21:14:11 10° SW 21:16:43 17° W 21:19:15 10° WNW visible
24 Jul ? 21:05:58 10° SSW 21:08:57 22° W 21:11:57 10° NW visible
25 Jul ? 20:58:06 11° SSW 21:01:11 28° W 21:04:31 10° NW visible
26 Jul ? 20:50:17 13° SSW 20:53:25 37° W 20:56:59 10° NNW visible
27 Jul ? 20:42:26 13° S 20:45:39 49° W 20:49:23 10° NNW visible
28 Jul ? 20:34:35 13° S 20:37:53 67° W 20:41:42 10° NNW visible
29 Jul ? 20:26:45 13° SSE 20:30:06 90° SW 20:33:57 10° N visible
30 Jul ? 20:18:53 12° SSE 20:22:21 67° ENE 20:26:09 10° N visible
31 Jul ? 20:11:01 11° SSE 20:14:34 50° ENE 20:18:17 10° N visible
01 Aug ? 20:03:14 10° SE 20:06:47 37° ENE 20:10:21 10° N visible
